Weather Service Report


097 
ASUS45 KSLC 190910
RWRUT 

UTAH REGIONAL WEATHER ROUNDUP
NATIONAL WEATHER SERVICE SALT LAKE CITY UT
300 AM MDT SAT APR 19 2014

UTZ001>011-023>025-191000-

NORTHERN UTAH
  
CITY           SKY/WX    TMP DP  RH WIND       PRES   REMARKS
HILL AFB       CLOUDY    49  40  70 NW5       29.98S                  
LOGAN          CLEAR     36  34  92 NW5       30.02S WCI  32          
OGDEN          CLOUDY    49  41  74 CALM      29.97S                  
PROVO AIRPORT  MOCLDY    52  45  76 SW8       29.98S                  
SALT LAKE CITY MOCLDY    48  46  93 CALM      29.97S                  
VERNAL         CLOUDY    56  33  42 S12       29.97S                  
WENDOVER       MOCLDY    52  34  50 CALM      29.98F                  
HEBER CITY     MOCLDY    34  30  86 CALM      30.00F                  
WEST JORDAN    MOCLDY    46  39  76 CALM      29.98S                  

$$

UTZ012>022-026-027-191000-

SOUTHERN UTAH
  
CITY           SKY/WX    TMP DP  RH WIND       PRES   REMARKS
BRYCE CANYON   CLOUDY    35  28  75 VRB3      30.12S                  
CEDAR CITY     CLOUDY    48  27  44 S6        30.01F                  
MILFORD        CLOUDY    48  25  40 S6        29.99S                  
MOAB/CYNLANDS  CLOUDY    60  35  39 SW10      29.98S                  
PRICE          MOCLDY    57  25  29 SE7       30.00F                  
ST GEORGE      PTSUNNY   64  30  27 SE8       29.95S                  
KANAB          MOCLDY    54  36  50 SW6       30.07S                  

$$

REGIONAL REPORTS     COLORADO/ARIZONA
  
CITY           SKY/WX    TMP DP  RH WIND       PRES   REMARKS
CRAIG, CO      MOCLDY    38  33  82 SE5       30.04S WCI  34          
GRAND JUNCTION CLOUDY    57  34  41 NW6       30.01S                  
RIFLE          CLOUDY    51  32  48 SE5       30.02S                  
MONTROSE       CLOUDY    55  32  41 CALM      30.06S                  
CORTEZ         LGT RAIN  48  44  86 NW6       30.12F                  
PAGE, AZ       CLOUDY    58  40  51 SW9       30.01S                  
GRAND CANYON   CLOUDY    43  41  93 NE5       30.11F                  
KINGMAN        CLOUDY    58  44  60 E5        29.99S                  
FLAGSTAFF      MOCLDY    36  34  92 CALM      30.11F FOG              

$$

REGIONAL REPORTS    NEVADA/IDAHO/WYOMING
  
CITY           SKY/WX    TMP DP  RH WIND       PRES   REMARKS
LAS VEGAS, NV  MOCLDY    67  39  35 S16       29.86R                  
ELY            CLOUDY    50  22  33 SW12      30.02F                  
ELKO           CLEAR     38  25  59 CALM      29.98S                  
POCATELLO, ID  CLEAR     33  25  72 N3        30.01F                  
BURLEY         CLEAR     35  29  78 SW3       29.99F                  
EVANSTON, WY   MOCLDY    39  31  72 NE5       30.06F                  
ROCK SPRINGS   CLOUDY    42  30  62 W12       30.04F                  

$$

Return to Home page


Western Regional Climate Center, wrcc@dri.edu